パンスターズ-クリステンセン彗星

443P/PanSTARRS-Christensen (2022)

English version
Home page
Updated on November 27, 2024

---------------------------------------------------------------------

・ プロフィール

符号 443P/2022 E1
発見日 2022年3月2日
発見光度 20.6等
発見者 Eric J. Christensen (Mt. Lemmon)

・ 写真集

・ 軌道要素

Epoch 2023 Feb. 25.0 TT = JDT 2460000.5
T 2022 Oct. 10.15541 TT                                 Rudenko
q   2.9561776            (2000.0)            P               Q
n   0.11756054     Peri.  145.11308     -0.24243582     +0.91525930
a   4.1269416      Node   108.94283     -0.94942154     -0.15560580
e   0.2836880      Incl.   19.88762     -0.19955853     -0.37160093
P   8.38
>From 170 observations 2005 July 5-2023 June 28, mean residual 0".5.

・ 光度変化

        m1 = 7.5 + 5 logΔ + 20.0 log r

---------------------------------------------------------------------

軌道要素はM.P.E.C. 2023-N01に掲載されたものです。
光度グラフはComet for Windowsで作成したものです。

---------------------------------------------------------------------

Copyright(C) Seiichi Yoshida (comet@aerith.net). All rights reserved.